Weather History for Ainsworth, NE

Change the Weather History Date:

Friday, January 24, 2014

  Actual Average Record
Temperature  
Mean Temperature 37 °F -  
Max Temperature 51 °F 33 °F 68 °F (2005)
Min Temperature 23 °F 14 °F -5 °F (1997)
Degree Days  
Heating Degree Days 28    
Moisture  
Dew Point 25 °F    
Average Humidity 54    
Maximum Humidity 82    
Minimum Humidity 38    
Precipitation  
Precipitation 0.00 in - - ()
Sea Level Pressure  
Sea Level Pressure 29.93 in    
Wind  
Wind Speed 19 mph (WNW)    
Max Wind Speed 30 mph    
Max Gust Speed 46 mph    
Visibility 10 miles    
Events Rain    
Averages and records for this station are not official NWS values.
T = Trace of Precipitation, MM = Missing Value Source: NWS Daily Summary

Daily Weather History Graph

Daily Weather History Graph

Search for Another Location

Airport:

Trip Planner

Search our weather history database for the weather conditions in past years. The results will help you decide how hot, cold, wet, or windy it might be!

Date:

Astronomy

Jan. 24, 2014 Rise Set
Actual Time 8:01 AM CST 5:43 PM CST
Civil Twilight 7:30 AM CST 6:13 PM CST
Nautical Twilight 6:56 AM CST 6:48 PM CST
Astronomical Twilight 6:23 AM CST 7:21 PM CST
Moon 1:28 AM CST (1/24) 12:04 PM CST (1/24)
Length of Visible Light 10h 42m
Length of Day
9h 41m
Last Quarter, 44% of the Moon is Illuminated
Jan 24
Last Quarter
Jan 30
New
Feb 6
First Quarter
Feb 14
Full
Feb 22
Last Quarter

Hourly Weather History & Observations

Time (CST) Temp. Windchill Dew Point Humidity Pressure Visibility Wind Dir Wind Speed Gust Speed Precip Events Conditions
12:15 AM 23.0 °F 7.2 °F 11.1 °F 60% 30.13 in 10.0 mi SW 23.0 mph 26.5 mph N/A   Clear
12:35 AM 23.0 °F 8.0 °F 10.9 °F 60% 30.12 in 10.0 mi SW 20.7 mph 26.5 mph N/A   Clear
12:55 AM 23.7 °F 9.3 °F 11.3 °F 59% 30.11 in 10.0 mi WSW 19.6 mph - N/A   Clear
1:15 AM 24.3 °F 10.4 °F 11.3 °F 58% 30.09 in 10.0 mi WSW 18.4 mph 25.3 mph N/A   Clear
1:35 AM 25.3 °F 11.8 °F 11.8 °F 57% 30.08 in 10.0 mi WSW 18.4 mph - N/A   Clear
1:55 AM 25.3 °F 11.4 °F 11.8 °F 57% 30.07 in 10.0 mi WSW 19.6 mph 26.5 mph N/A   Clear
2:15 AM 25.7 °F 13.5 °F 12.0 °F 56% 30.07 in 10.0 mi WSW 15.0 mph - N/A   Clear
2:35 AM 26.1 °F 14.0 °F 12.0 °F 55% 30.07 in 10.0 mi WSW 15.0 mph - N/A   Clear
2:55 AM 26.4 °F 15.0 °F 12.0 °F 55% 30.06 in 10.0 mi WSW 13.8 mph - N/A   Clear
3:15 AM 26.4 °F 13.6 °F 11.8 °F 54% 30.04 in 10.0 mi WSW 17.3 mph - N/A   Clear
3:35 AM 26.4 °F 15.0 °F 11.7 °F 54% 30.03 in 10.0 mi WSW 13.8 mph - N/A   Clear
3:55 AM 27.5 °F 16.3 °F 11.3 °F 51% 30.02 in 10.0 mi WSW 13.8 mph - N/A   Clear
4:15 AM 28.0 °F 16.1 °F 10.9 °F 49% 30.01 in 10.0 mi WSW 16.1 mph - N/A   Clear
4:35 AM 28.0 °F 16.5 °F 10.9 °F 49% 30.01 in 10.0 mi WSW 15.0 mph - N/A   Clear
4:55 AM 27.5 °F 15.9 °F 10.8 °F 49% 30.01 in 10.0 mi WSW 15.0 mph - N/A   Clear
5:15 AM 27.5 °F 16.3 °F 10.4 °F 49% 30.00 in 10.0 mi WSW 13.8 mph - N/A   Clear
5:35 AM 28.6 °F 19.3 °F 10.2 °F 46% 29.99 in 10.0 mi West 10.4 mph - N/A   Clear
5:55 AM 29.3 °F 20.2 °F 10.0 °F 45% 29.98 in 10.0 mi West 10.4 mph - N/A   Scattered Clouds
6:15 AM 32.0 °F 21.6 °F 10.0 °F 40% 29.98 in 10.0 mi West 15.0 mph - N/A   Mostly Cloudy
6:35 AM 33.8 °F 24.3 °F 10.9 °F 39% 29.97 in 10.0 mi West 13.8 mph - N/A   Overcast
6:55 AM 35.6 °F 27.1 °F 12.2 °F 38% 29.98 in 10.0 mi West 12.7 mph - N/A   Overcast
7:15 AM 36.1 °F 26.5 °F 14.0 °F 40% 29.97 in 10.0 mi WNW 16.1 mph 21.9 mph N/A   Overcast
7:35 AM 38.7 °F 28.8 °F 18.9 °F 45% 29.98 in 10.0 mi WNW 19.6 mph 25.3 mph N/A   Overcast
7:55 AM 39.4 °F 30.4 °F 23.0 °F 52% 29.97 in 10.0 mi WNW 17.3 mph 28.8 mph N/A   Overcast
8:15 AM 38.8 °F 30.8 °F 22.3 °F 51% 29.97 in 10.0 mi West 13.8 mph - N/A   Overcast
8:35 AM 39.4 °F 31.1 °F 19.4 °F 45% 29.97 in 10.0 mi West 15.0 mph 20.7 mph N/A   Overcast
8:55 AM 39.7 °F 30.9 °F 20.7 °F 46% 29.97 in 10.0 mi West 17.3 mph - N/A   Overcast
9:15 AM 40.6 °F 31.7 °F 23.2 °F 50% 29.97 in 10.0 mi West 18.4 mph 21.9 mph N/A   Overcast
9:35 AM 41.7 °F 33.4 °F 24.3 °F 50% 29.97 in 10.0 mi WNW 17.3 mph 28.8 mph N/A   Overcast
9:55 AM 43.0 °F 34.2 °F 25.2 °F 49% 29.96 in 10.0 mi WNW 20.7 mph 28.8 mph N/A   Mostly Cloudy
10:15 AM 43.5 °F 34.5 °F 25.9 °F 50% 29.95 in 10.0 mi WNW 23.0 mph 31.1 mph N/A   Scattered Clouds
10:35 AM 44.6 °F 35.7 °F 26.2 °F 49% 29.95 in 10.0 mi WNW 24.2 mph 31.1 mph N/A   Clear
10:55 AM 45.1 °F 36.0 °F 26.2 °F 48% 29.95 in 10.0 mi WNW 26.5 mph 33.4 mph N/A   Clear
11:15 AM 46.4 °F 37.5 °F 27.7 °F 48% 29.95 in 10.0 mi NW 27.6 mph 39.1 mph N/A   Clear
11:35 AM 46.4 °F 37.2 °F 28.8 °F 50% 29.95 in 10.0 mi NW 29.9 mph 39.1 mph N/A   Mostly Cloudy
11:55 AM 46.8 °F - 29.1 °F 50% 29.94 in 10.0 mi WNW 19.6 mph 31.1 mph N/A   Scattered Clouds
12:15 PM 47.7 °F - 28.6 °F 48% 29.93 in 10.0 mi WNW 19.6 mph 27.6 mph N/A   Scattered Clouds
12:35 PM 49.1 °F - 29.3 °F 46% 29.92 in 10.0 mi WNW 25.3 mph 31.1 mph N/A   Scattered Clouds
12:55 PM 49.1 °F - 29.3 °F 46% 29.90 in 10.0 mi WNW 18.4 mph 31.1 mph N/A   Mostly Cloudy
1:15 PM 49.1 °F - 29.8 °F 47% 29.89 in 10.0 mi NW 21.9 mph 32.2 mph N/A   Overcast
1:35 PM 50.4 °F - 30.7 °F 47% 29.88 in 10.0 mi NW 23.0 mph 29.9 mph N/A   Mostly Cloudy
1:55 PM 50.7 °F - 30.7 °F 46% 29.88 in 10.0 mi WNW 19.6 mph 33.4 mph N/A   Overcast
2:15 PM 50.0 °F - 32.7 °F 52% 29.88 in 10.0 mi NW 26.5 mph 46.0 mph N/A   Overcast
2:35 PM 49.1 °F - 34.7 °F 58% 29.87 in 10.0 mi NW 26.5 mph 33.4 mph N/A Rain Light Rain
2:55 PM 48.4 °F - 35.8 °F 62% 29.87 in 10.0 mi WNW 23.0 mph 43.7 mph N/A Rain Light Rain
3:15 PM 47.3 °F - 37.4 °F 68% 29.85 in 10.0 mi WNW 23.0 mph 32.2 mph N/A   Drizzle
3:35 PM 48.0 °F - 37.4 °F 67% 29.83 in 10.0 mi WNW 19.6 mph 26.5 mph N/A   Mostly Cloudy
3:55 PM 49.3 °F - 36.7 °F 62% 29.82 in 10.0 mi West 19.6 mph 25.3 mph N/A   Overcast
4:15 PM 50.4 °F - 36.5 °F 59% 29.81 in 10.0 mi West 23.0 mph 31.1 mph N/A   Overcast
4:35 PM 50.4 °F - 36.5 °F 59% 29.79 in 10.0 mi West 23.0 mph 29.9 mph N/A   Mostly Cloudy
4:55 PM 49.8 °F - 36.5 °F 60% 29.78 in 10.0 mi West 21.9 mph 28.8 mph N/A   Overcast
5:15 PM 49.6 °F - 36.5 °F 61% 29.79 in 10.0 mi West 21.9 mph 26.5 mph N/A   Overcast
5:35 PM 49.5 °F - 35.6 °F 59% 29.80 in 10.0 mi West 19.6 mph 25.3 mph N/A   Scattered Clouds
5:55 PM 49.5 °F - 34.7 °F 57% 29.80 in 10.0 mi West 20.7 mph 26.5 mph N/A   Scattered Clouds
6:15 PM 51.3 °F - 33.8 °F 51% 29.81 in 10.0 mi WNW 23.0 mph 34.5 mph N/A   Mostly Cloudy
6:35 PM 50.4 °F - 33.8 °F 53% 29.81 in 10.0 mi WNW 24.2 mph 32.2 mph N/A   Mostly Cloudy
6:55 PM 50.0 °F - 33.8 °F 54% 29.82 in 10.0 mi NW 21.9 mph 28.8 mph N/A   Clear
7:15 PM 49.3 °F - 33.4 °F 54% 29.83 in 10.0 mi NW 21.9 mph 31.1 mph N/A   Clear
7:35 PM 50.0 °F - 32.9 °F 52% 29.83 in 10.0 mi NW 25.3 mph 39.1 mph N/A   Scattered Clouds
7:55 PM 49.3 °F - 32.9 °F 53% 29.84 in 10.0 mi NW 24.2 mph 33.4 mph N/A   Mostly Cloudy
8:15 PM 49.1 °F - 32.9 °F 54% 29.85 in 10.0 mi NW 19.6 mph 31.1 mph N/A   Overcast
8:35 PM 48.2 °F - 32.5 °F 55% 29.85 in 10.0 mi NW 23.0 mph 29.9 mph N/A   Overcast
8:55 PM 47.8 °F - 32.9 °F 56% 29.85 in 10.0 mi NW 20.7 mph 32.2 mph N/A   Overcast
9:15 PM 47.7 °F - 33.1 °F 57% 29.87 in 10.0 mi NW 21.9 mph 29.9 mph N/A   Overcast
9:35 PM 47.1 °F - 33.1 °F 58% 29.87 in 10.0 mi NW 17.3 mph 33.4 mph N/A   Overcast
9:55 PM 46.6 °F - 33.1 °F 59% 29.88 in 10.0 mi NW 23.0 mph 32.2 mph N/A   Overcast
10:15 PM 46.4 °F 38.3 °F 33.4 °F 61% 29.88 in 10.0 mi NW 23.0 mph 32.2 mph N/A   Overcast
10:35 PM 46.0 °F 37.0 °F 33.4 °F 61% 29.89 in 10.0 mi NNW 27.6 mph 34.5 mph N/A   Overcast
10:55 PM 45.5 °F 36.9 °F 33.4 °F 63% 29.90 in 10.0 mi NNW 24.2 mph 40.3 mph N/A   Overcast
11:15 PM 44.2 °F 35.4 °F 34.0 °F 67% 29.91 in 10.0 mi NNW 23.0 mph 36.8 mph N/A   Overcast
11:35 PM 41.7 °F 31.6 °F 35.8 °F 79% 29.92 in 10.0 mi NNW 25.3 mph 28.8 mph N/A   Overcast
11:55 PM 41.4 °F 32.1 °F 36.1 °F 82% 29.92 in 10.0 mi NNW 20.7 mph - N/A   Overcast